#timestamp,LO_Frequency,Hit,StdDev 
1601258415.1,286046996.5,P
1601258416.0,286046996.5,P
1601258435.8,286046997.1,P
1601258455.7,286046998.5,N
1601258475.5,286046996.5,Y
1601258495.3,286047000.1,P
1601258515.2,286047002.3,N
1601258535.0,286047000.1,N
1601258535.9,286047000.1,N
1601258555.8,286046999.7,N
1601258575.6,286047000.8,N
1601258595.4,286047002.4,N
1601258615.3,286047001.3,N
1601258635.1,286047002.3,N
1601258655.8,286047002.0,N
1601258675.7,286047000.4,N
1601258695.5,286046999.7,N
1601258715.4,286046999.9,N
1601258735.2,286047003.1,N
1601258755.0,286047005.2,Y
1601258755.9,286047005.2,P
1601258775.8,286047004.3,N
1601258795.6,286047003.2,N
1601258815.5,286047004.6,N
1601258835.3,286047005.3,Y
1601258855.1,286047000.5,P
1601258875.9,286047002.0,N
1601258895.7,286047003.9,P
1601258915.5,286046999.7,N
1601258935.4,286047000.2,N
1601258955.2,286047002.4,N
1601258975.1,286047000.9,N
1601258976.0,286047000.9,N
1601258995.8,286047001.1,N
1601259015.6,286046998.5,N
1601259035.5,286046999.6,N
1601259055.3,286046999.2,N
1601259075.1,286046996.5,N
1601259095.9,286046998.7,N
1601259115.7,286046998.4,N
1601259135.6,286047000.7,N
1601259155.4,286047000.8,N
1601259175.2,286047000.5,N
1601259195.1,286047000.8,N
1601259196.0,286047000.8,N
1601259215.8,286047000.7,N
1601259235.7,286047000.8,N
1601259255.5,286046998.1,N
1601259275.3,286046998.8,N
1601259295.2,286047000.9,N
1601259315.0,286046998.2,N
1601259315.9,286046998.2,N
1601259335.7,286047000.6,N
1601259355.6,286047000.0,N
1601259375.4,286047001.8,N
1601259395.3,286047003.3,N
1601259415.1,286047005.4,Y
1601259416.0,286047005.4,P
1601259435.8,286047003.5,N
1601259455.7,286047005.5,N
1601259475.5,286047005.1,N
1601259495.4,286047001.3,N
1601259515.2,286047004.4,N
1601259535.0,286047001.4,N
1601259535.9,286047001.4,N
1601259555.8,286047001.4,N
1601259575.6,286047004.2,N
1601259595.4,286047004.4,N
1601259615.3,286047001.4,N
1601259635.1,286047003.1,N
1601259655.9,286047003.8,N
1601259675.7,286047001.6,N
1601259695.5,286047004.2,N
1601259715.4,286047002.6,N
1601259735.2,286047000.3,N
1601259755.0,286047002.7,N
1601259755.9,286047002.7,N
1601259775.8,286047003.9,N
1601259795.6,286047002.4,N
1601259815.5,286047004.3,N
1601259835.3,286047001.9,N
1601259855.1,286047002.5,N
1601259875.9,286047001.3,N
1601259895.7,286047001.4,N
1601259915.5,286047000.5,N
1601259935.4,286046998.6,N
1601259955.2,286047001.8,N
1601259975.1,286047004.4,N
1601259976.0,286047004.4,N
1601259995.8,286046998.1,N
1601260015.6,286046999.3,N
1601260035.5,286046996.8,N
1601260055.3,286046998.0,N
1601260075.1,286046999.1,N
1601260095.9,286046998.4,N
1601260115.7,286047000.6,N
1601260135.6,286047001.1,N
1601260155.4,286047000.3,N
1601260175.2,286046999.3,N
1601260195.1,286046999.0,N
1601260196.0,286046999.0,N
1601260215.8,286047000.6,N
1601260235.7,286046999.5,N
1601260255.5,286046998.2,N
1601260275.3,286046999.3,N
1601260295.2,286046999.2,N
1601260315.9,286046997.1,N
1601260335.7,286046999.4,N
1601260355.6,286046998.7,N
1601260375.4,286046996.8,N
1601260395.3,286047000.7,N
1601260415.1,286046999.0,N
1601260416.0,286046999.0,N
1601260435.8,286046998.6,N
1601260455.7,286046996.5,N
1601260475.5,286046999.4,N
1601260495.3,286046997.5,N
1601260515.2,286046995.6,N
1601260535.0,286046997.9,N
1601260535.9,286046997.9,N
1601260555.8,286047001.2,N
1601260575.6,286047000.7,N
1601260595.4,286046998.4,N
1601260615.3,286046996.5,N
1601260635.1,286046998.1,N
1601260655.8,286046998.6,N
1601260675.7,286047001.0,N
1601260695.5,286046998.2,N
1601260715.4,286047002.3,N
1601260735.2,286046999.7,N
1601260755.0,286047001.1,N
1601260755.9,286047001.1,N
1601260775.8,286046998.7,N
1601260795.6,286046999.6,N
1601260815.5,286046999.2,N
1601260835.3,286046999.3,N
1601260855.1,286046996.8,N
1601260875.9,286046998.1,N
1601260895.7,286046998.6,N
1601260915.5,286046998.4,N
1601260935.4,286047000.9,N
1601260955.2,286046999.9,N
1601260975.1,286047000.5,N
1601260976.0,286047000.5,N
1601260995.8,286046998.2,N
1601261015.6,286046998.1,N
1601261035.5,286046999.2,N
1601261055.3,286046998.4,N
1601261075.1,286047000.5,N
1601261095.9,286046999.8,N
1601261115.7,286046998.5,N
1601261135.6,286046998.2,N
1601261155.4,286047000.9,N
1601261175.2,286047000.4,N
1601261195.1,286046998.1,N
1601261196.0,286046998.1,N
1601261215.8,286046998.2,N
1601261235.6,286046998.7,N
1601261255.5,286046999.8,N
1601261275.3,286047001.5,N
1601261295.2,286047001.6,N
1601261315.9,286047001.8,N
1601261335.7,286047000.3,N
1601261355.6,286047000.2,N
1601261375.4,286047001.6,N
1601261395.2,286046999.9,N
1601261415.1,286047000.8,N
1601261416.0,286047000.8,N
1601261435.8,286046998.5,N
1601261455.7,286046999.4,N
1601261475.5,286046998.2,N
1601261495.3,286047000.6,N
1601261515.2,286046999.3,N
1601261535.0,286046997.4,N
1601261535.9,286046997.4,N
1601261555.8,286046998.0,N
1601261575.6,286046998.0,N
1601261595.4,286046996.2,N
1601261615.3,286046997.5,N
1601261635.1,286046995.2,Y
1601261655.8,286046994.9,P
1601261675.7,286046997.9,N
1601261695.5,286046997.9,N
1601261715.4,286046997.7,N
1601261735.2,286046995.4,Y
1601261755.0,286046996.6,P
1601261755.9,286046996.6,P
1601261775.8,286046998.9,N
1601261795.6,286046999.8,N
1601261815.5,286047000.4,N
1601261835.3,286047000.1,N
1601261855.1,286047000.7,N
1601261875.9,286046998.3,N
1601261895.7,286046996.6,N
1601261915.5,286046998.3,N
1601261935.4,286047000.6,N
1601261955.2,286046998.4,N
1601261975.1,286047000.5,N
1601261976.0,286047000.5,N
1601261995.8,286046999.8,N
